Theta_e
348 346 343 344 343 342 344 345 343 342 341 340 341 341 339 344 350 353 353 347 341 339 340 338 339 338 337 337 337 337 337 337 338 338 337 338 338 337 335 335 335 335 336 336 336 336 335 334 332 331 330 329 329 329 329 328 328 329 327 326 324 323 324 324 325 326 326 327 327 327 326 326 325 324
349 348 342 341 344 344 343 346 346 343 342 339 340 342 339 339 345 348 352 351 343 339 340 339 337 337 338 337 337 337 337 338 338 338 338 338 338 336 335 335 336 336 336 337 337 337 337 335 333 331 330 330 329 329 328 328 329 330 329 326 325 324 323 323 324 325 325 325 324 324 323 322 321 320
350 350 346 341 342 344 344 345 347 345 343 340 340 342 341 340 341 343 348 352 347 341 341 340 336 336 338 337 336 336 337 338 338 337 337 337 337 337 337 337 338 338 338 338 338 337 334 332 332 331 331 330 328 328 328 329 329 330 329 328 327 325 323 322 323 323 323 323 323 322 321 320 319 319
350 351 351 347 342 342 344 345 346 346 344 341 340 342 343 342 342 341 344 348 347 342 341 341 338 337 337 337 336 337 337 337 337 338 338 338 338 338 338 338 338 338 338 339 338 335 332 330 329 329 329 328 327 327 328 328 329 329 330 329 329 327 323 322 323 323 323 323 322 322 321 320 319 318
351 350 351 351 347 343 343 343 345 346 346 344 342 341 343 343 343 343 343 345 346 344 342 342 340 338 337 337 337 337 338 338 338 339 339 340 339 339 339 338 338 338 339 338 337 334 332 331 331 330 329 328 328 328 329 329 330 329 330 330 330 328 325 324 324 324 324 323 323 322 321 319 318 318
353 351 350 350 350 347 344 342 343 345 346 346 345 343 343 343 343 344 343 343 345 345 344 342 341 339 338 338 338 338 338 339 339 340 340 340 340 339 337 335 337 339 339 338 336 334 334 335 334 333 332 331 331 330 331 332 331 330 330 330 331 329 327 326 325 325 325 324 324 323 321 319 318 318
354 353 352 350 349 348 347 344 343 343 345 346 346 344 343 343 343 343 343 342 343 344 344 343 342 341 339 340 340 339 339 341 341 340 341 340 341 340 338 336 336 338 339 339 338 337 336 335 334 334 333 333 333 333 333 333 332 330 330 330 331 329 328 327 326 326 325 324 323 322 320 320 319 319
355 353 352 352 350 348 348 348 346 344 343 345 346 346 344 344 343 343 343 342 342 343 343 343 342 342 341 341 341 340 340 341 341 340 340 341 341 341 341 339 337 337 339 340 339 338 336 335 335 335 334 334 334 334 334 332 331 330 330 330 330 329 328 327 327 326 325 324 322 322 321 320 319 318
356 354 353 352 352 350 348 348 348 346 344 344 346 346 346 345 344 344 344 344 343 343 344 343 341 341 342 341 341 341 341 341 341 340 340 341 342 342 342 341 339 339 340 340 339 338 338 338 337 335 334 334 334 334 333 332 331 331 330 330 330 329 328 328 327 326 324 323 323 322 321 319 316 317
356 355 353 352 352 351 349 349 349 348 346 345 346 346 346 345 345 344 344 344 344 343 344 343 342 342 342 342 342 342 342 341 341 340 341 341 341 341 342 341 341 340 340 340 339 338 338 338 337 334 333 334 334 334 334 333 332 332 331 330 330 329 329 328 326 325 324 324 323 320 316 312 310 314
356 355 354 353 352 351 350 349 348 349 349 348 347 347 347 346 346 345 345 344 344 344 344 344 344 343 342 343 343 343 342 341 341 341 341 341 341 341 341 341 340 340 340 340 339 338 337 336 335 334 334 334 335 335 334 334 333 332 332 331 330 329 328 327 326 325 325 323 319 313 308 305 306 310
357 356 355 354 353 352 351 349 348 348 349 349 349 348 348 347 347 346 346 345 345 346 344 344 344 344 343 344 345 344 343 342 342 341 341 341 341 340 340 340 339 340 339 340 339 338 337 336 335 335 335 335 336 335 335 335 334 332 332 332 331 329 329 328 327 326 323 318 312 306 303 303 305 308
359 357 356 354 353 352 352 351 349 348 347 348 349 349 349 348 347 346 346 345 346 347 346 344 343 343 344 343 344 345 344 342 342 342 341 341 341 341 341 340 340 339 339 339 340 339 339 338 336 336 335 335 336 336 336 335 332 330 330 331 331 330 330 329 327 323 317 310 306 303 302 303 305 308
359 358 357 356 355 354 353 352 351 349 348 347 348 348 348 348 348 347 346 345 345 346 346 345 344 343 343 343 343 344 344 343 342 342 341 341 341 341 342 342 341 340 340 340 341 341 340 339 337 336 336 336 336 336 335 333 331 330 330 331 330 329 328 327 323 317 311 306 303 302 302 302 303 306
358 359 358 357 356 355 354 354 353 352 350 348 348 347 347 347 347 347 346 346 345 345 346 345 346 345 344 344 343 342 343 343 343 343 342 342 342 342 342 342 342 341 340 340 340 340 339 338 338 337 336 336 336 334 332 332 330 329 329 329 328 326 324 321 317 313 309 307 304 303 303 303 303 304
359 359 359 358 357 357 356 355 355 354 352 350 349 348 348 347 346 346 346 346 345 345 345 345 345 346 345 345 344 343 342 343 343 343 342 342 342 342 342 342 342 341 340 339 340 339 338 338 338 338 337 336 334 332 331 331 330 328 327 326 325 323 321 318 315 313 311 309 308 307 306 305 305 305
360 360 359 359 359 358 358 356 356 355 354 353 351 349 349 348 347 346 345 345 344 345 345 344 344 344 344 344 345 344 343 342 342 343 343 342 342 342 342 342 341 341 340 339 339 338 337 337 337 336 335 334 332 331 331 330 328 327 326 324 323 322 319 317 315 313 312 312 311 310 309 308 309 309
361 360 360 360 360 359 359 358 357 356 355 354 353 351 350 349 348 348 347 346 345 344 344 344 343 343 343 343 343 343 343 343 343 343 343 343 342 342 342 341 341 340 340 339 338 338 337 336 336 335 333 332 331 329 328 327 326 326 325 324 322 320 317 316 315 314 314 314 313 312 311 311 312 313
361 360 360 360 360 360 359 359 358 358 356 355 354 352 351 350 349 349 348 348 347 346 345 345 344 343 342 342 342 342 343 343 342 343 343 343 342 342 342 341 341 340 340 339 337 337 336 335 335 333 331 331 329 327 325 325 324 324 324 322 320 318 317 316 315 314 314 314 313 313 313 313 313 313
360 360 360 360 360 360 359 359 359 359 358 356 354 353 351 350 349 349 349 348 348 347 347 345 345 344 343 343 343 342 342 343 342 342 343 342 342 342 342 341 341 340 339 339 337 337 336 335 334 332 330 329 327 325 323 323 323 323 322 320 319 317 316 316 315 315 314 314 313 313 313 313 313 313
359 360 360 360 359 359 359 359 359 359 359 357 355 353 351 350 349 349 349 349 349 348 348 347 346 346 345 344 344 343 343 343 343 344 343 342 342 342 341 340 340 339 339 338 338 337 336 334 333 332 330 328 325 323 323 322 322 321 320 319 319 317 317 316 315 314 314 314 313 313 313 314 314 314
359 359 359 360 360 359 359 359 359 359 359 358 356 354 352 350 349 349 349 349 349 349 349 349 348 347 346 345 345 345 344 344 344 344 344 342 342 342 340 339 338 338 338 337 337 337 336 334 333 332 329 325 324 323 322 321 320 319 319 319 318 317 316 316 315 314 314 314 313 313 314 314 314 314
360 360 360 360 360 360 359 359 359 359 359 359 357 356 354 352 350 350 350 349 349 349 349 349 349 348 347 346 346 346 346 346 345 345 344 342 342 341 339 338 337 337 337 336 337 337 335 334 334 331 326 323 322 322 321 320 319 318 318 318 317 316 316 316 315 314 314 314 313 313 314 314 314 315
362 361 360 361 361 362 362 360 360 359 359 359 358 357 355 353 353 352 351 350 350 349 349 349 349 348 348 347 347 347 347 346 346 346 345 343 342 341 339 338 337 337 337 336 335 335 334 334 333 331 327 324 322 321 320 319 318 317 317 316 316 316 316 315 315 315 314 314 313 313 313 314 314 315
363 362 362 361 361 362 362 362 362 361 360 360 359 358 357 355 355 355 353 352 351 350 349 349 348 348 347 347 347 347 347 347 347 346 345 343 341 341 339 338 336 336 337 336 333 331 333 333 332 328 325 324 321 319 319 318 317 316 316 316 316 316 315 314 315 315 314 314 314 313 314 314 315 316
363 363 363 363 362 362 362 362 362 363 362 361 360 359 358 357 356 356 354 354 352 350 349 349 348 348 347 346 346 345 346 346 347 346 344 343 341 341 340 339 338 336 336 335 331 330 332 333 331 326 323 322 320 319 318 318 317 316 317 316 316 315 315 315 315 315 314 314 314 313 314 314 315 316
364 364 364 364 363 363 362 362 362 362 363 363 362 361 360 359 358 357 355 355 353 351 350 349 348 347 347 346 345 344 344 345 345 345 345 343 342 341 340 340 339 339 337 334 331 330 331 332 330 326 323 321 320 319 318 318 317 317 316 316 315 314 314 315 314 314 314 314 313 313 314 314 316 316
365 365 365 365 364 364 363 363 362 362 362 362 362 362 362 361 359 357 355 355 353 352 351 349 348 348 347 346 345 344 344 344 343 344 343 343 342 341 340 340 339 338 336 333 331 330 330 330 329 326 324 322 320 319 319 318 317 316 315 315 314 314 314 314 313 314 314 313 313 313 314 315 317 316
364 364 364 365 364 364 364 364 363 362 362 362 361 361 362 362 360 356 354 354 354 352 351 350 349 348 347 346 345 344 344 343 342 342 342 341 341 340 338 338 337 335 333 332 330 329 329 330 327 325 323 322 321 320 319 318 317 316 315 315 314 313 313 313 313 313 312 312 313 314 314 316 317 316
362 363 363 363 363 363 363 363 362 362 362 362 362 362 362 362 360 355 352 352 353 353 352 351 350 349 348 347 345 344 343 342 341 341 341 340 339 338 336 335 334 332 332 331 330 328 328 328 326 324 323 322 321 320 318 317 317 316 314 314 314 313 313 313 313 312 312 312 313 314 316 317 317 316
359 360 361 360 361 360 360 360 360 360 359 359 359 360 360 361 360 357 353 352 353 353 353 352 351 350 348 347 345 344 343 342 341 340 339 338 337 335 334 332 330 329 329 329 328 327 327 326 325 324 323 321 319 318 317 316 316 315 314 314 314 314 313 312 312 312 313 313 313 314 316 317 316 316
357 357 358 358 359 359 359 359 359 359 359 358 357 357 357 358 358 356 353 352 352 353 353 353 352 350 348 346 345 344 342 341 340 339 338 337 336 334 332 329 327 326 325 325 325 325 325 325 324 323 322 320 318 316 316 317 316 316 315 314 314 314 313 311 311 312 313 313 313 314 316 316 315 315
356 356 355 354 354 354 354 355 356 357 356 356 355 354 353 353 353 352 350 349 350 352 352 352 351 349 346 344 343 343 342 340 340 339 337 335 334 333 330 328 326 324 324 323 323 323 323 323 322 321 320 319 316 314 315 316 316 315 314 314 314 313 311 309 310 312 312 313 314 316 316 315 315 314
345 347 348 347 347 347 348 349 351 352 352 352 352 351 351 349 348 347 347 347 349 350 351 352 350 345 342 342 342 342 341 340 339 338 336 334 333 331 329 327 325 324 323 323 322 322 322 321 320 319 319 318 316 314 313 314 315 313 313 313 313 311 307 306 310 313 313 314 316 316 316 315 314 313
330 332 335 337 338 340 343 345 347 348 349 349 350 350 350 349 348 346 346 346 347 348 349 350 348 344 341 342 342 342 341 340 339 337 334 333 332 330 329 327 325 324 323 323 322 321 321 320 320 320 319 319 318 317 316 315 315 314 314 313 311 309 306 308 312 314 315 316 316 315 315 314 312 312
329 329 329 330 331 332 334 337 339 341 343 345 346 347 348 348 348 347 346 346 346 346 347 349 348 346 343 342 343 342 342 340 338 336 333 332 331 330 328 327 326 324 323 323 322 322 321 320 320 320 319 319 319 319 318 316 316 316 315 313 312 310 309 310 313 315 316 316 315 314 313 312 311 313
331 331 330 330 330 330 331 331 333 334 336 338 339 341 343 344 345 346 347 346 346 345 345 347 348 347 345 344 343 342 341 340 337 335 332 331 331 329 328 326 325 324 324 323 323 323 322 321 320 320 319 319 320 320 318 317 317 316 315 314 313 313 312 312 313 315 316 316 314 313 312 311 312 315
332 332 331 331 331 331 331 331 331 331 332 332 333 334 336 337 339 341 343 345 345 345 345 344 346 347 347 345 343 341 340 338 336 334 332 331 330 329 327 325 324 324 324 324 323 323 323 322 321 319 318 319 320 320 318 317 316 316 315 315 315 315 314 314 315 316 316 315 314 312 311 311 314 316
333 332 332 332 332 331 331 331 331 331 331 331 332 332 332 333 334 335 337 340 342 344 344 344 344 345 346 346 345 342 340 338 336 334 332 330 329 328 326 325 324 324 324 323 323 323 323 322 321 319 318 318 319 319 318 317 316 316 317 316 316 316 316 316 316 316 315 314 313 311 310 312 315 315
332 331 331 331 331 331 330 330 330 330 330 331 331 332 332 332 333 333 334 336 338 340 342 344 344 344 345 346 345 343 339 337 335 333 332 330 328 327 326 325 324 324 323 323 323 322 322 322 321 320 320 319 319 319 318 316 315 316 316 315 314 315 315 316 317 317 315 313 312 311 310 311 314 315
332 331 331 331 330 330 329 329 328 328 328 329 330 330 331 332 332 333 333 334 334 336 337 340 342 343 344 345 345 343 339 336 333 332 331 329 327 326 326 325 324 323 323 323 322 322 322 321 321 321 320 320 319 317 315 314 313 313 314 314 313 313 313 314 315 315 313 311 311 311 311 312 314 315
332 330 330 330 329 329 328 328 327 327 327 327 327 327 328 329 330 331 332 333 334 334 335 336 338 340 342 343 344 341 338 335 333 331 330 328 326 325 325 325 324 323 323 323 323 322 322 321 321 321 320 319 317 315 313 312 312 312 312 312 312 311 311 312 312 312 311 310 310 311 312 313 315 315
330 329 328 328 328 327 327 327 326 326 326 326 325 326 326 326 327 328 330 332 333 334 335 336 336 337 338 340 342 341 337 334 331 330 328 327 325 325 324 324 324 324 323 323 322 322 322 321 321 321 320 318 316 314 313 313 312 312 312 312 312 311 311 313 313 312 312 312 312 312 312 313 314 314
329 328 327 326 326 326 326 326 325 325 325 325 325 325 325 325 326 326 326 328 329 331 333 335 336 337 337 338 339 339 337 333 329 328 326 325 325 325 324 324 323 323 323 323 322 322 321 321 321 320 318 316 315 314 314 313 313 312 312 312 312 311 311 312 313 312 312 312 312 312 312 312 312 313
328 327 327 326 324 324 325 325 325 325 325 325 325 325 325 325 325 325 325 325 326 326 328 329 331 332 334 334 333 332 331 329 327 326 325 324 323 323 323 323 323 322 322 322 322 322 321 321 320 319 317 316 316 315 315 314 313 313 312 312 311 310 311 312 312 311 311 311 311 312 313 313 313 312
Wind_Speed
18 20 20 19 19 19 16 15 17 16 16 16 16 18 18 13 7 3 4 6 11 17 18 17 18 21 25 23 22 22 19 15 13 13 13 12 13 14 12 11 11 11 12 12 12 13 13 14 15 15 15 14 14 14 13 12 11 12 11 11 11 10 10 9 8 8 8 8 9 10 11 12 12 13
19 20 21 21 22 21 18 15 16 17 17 16 16 18 19 18 13 8 5 6 12 17 17 17 16 18 25 25 22 22 19 16 15 15 14 13 13 13 12 12 12 12 13 13 13 14 14 14 14 15 15 15 15 14 13 12 12 12 12 11 11 11 10 9 8 8 8 9 10 10 12 12 13 14
21 21 21 22 23 24 21 17 13 15 18 18 17 18 18 18 18 15 9 4 11 17 16 17 16 16 23 26 23 21 19 18 18 17 16 15 14 13 13 13 12 13 14 14 14 14 13 14 14 14 14 14 14 14 13 13 13 13 12 12 11 11 10 9 9 9 10 11 12 13 13 13 13 13
23 23 23 22 24 24 23 21 16 13 17 19 19 19 19 18 19 19 14 7 9 15 16 16 17 17 21 26 25 22 20 19 19 18 17 16 14 14 14 14 14 15 14 15 15 15 14 13 13 13 14 14 14 14 13 13 14 14 13 12 11 11 11 10 11 11 12 13 13 14 13 13 14 14
26 25 25 24 24 24 24 24 21 16 16 19 20 21 21 21 20 20 19 14 11 14 15 13 13 16 20 26 26 23 21 19 19 18 17 16 16 16 17 18 17 16 16 16 16 15 14 12 12 12 13 13 13 13 13 13 14 14 13 12 12 12 12 12 12 13 14 14 15 15 15 14 14 14
29 27 27 27 25 24 24 25 24 21 18 19 22 23 23 24 24 23 22 19 15 16 17 13 10 15 22 24 24 23 21 20 20 20 19 18 17 17 18 19 19 17 17 16 15 14 13 13 12 12 12 12 13 13 13 14 14 14 14 13 12 12 12 12 13 14 14 15 16 16 16 15 15 15
31 29 29 29 28 26 25 26 27 26 23 22 22 24 25 25 25 25 24 23 19 18 20 18 13 16 22 23 22 22 21 20 21 21 19 19 18 17 17 18 19 18 15 14 13 13 14 13 12 12 12 12 13 14 15 15 15 14 14 13 12 12 13 13 13 14 15 16 16 16 16 16 16 17
32 32 31 31 30 29 28 27 29 29 28 26 25 25 26 27 27 26 26 26 24 20 20 22 20 18 20 20 20 21 21 20 21 21 19 19 19 17 16 16 16 16 15 14 14 14 14 13 13 12 13 13 14 15 15 15 14 14 13 12 12 12 13 13 14 14 15 15 15 15 16 17 18 18
34 34 34 33 32 31 30 29 30 31 32 31 29 27 28 29 29 28 27 27 26 23 22 23 23 20 19 19 19 20 22 22 21 20 19 19 18 17 16 15 15 15 16 16 16 15 15 15 14 14 13 13 14 14 14 14 14 13 12 11 10 11 12 13 14 14 14 14 15 16 18 19 19 18
36 36 36 35 33 33 33 33 32 33 33 34 33 31 30 30 30 30 29 28 27 27 26 24 23 22 21 21 20 21 23 23 23 22 20 19 18 18 17 17 17 18 18 17 16 16 17 17 16 14 14 13 13 13 13 14 13 13 12 10 10 11 12 13 13 13 13 14 15 18 20 20 19 17
37 37 37 37 36 36 36 36 36 35 35 35 35 34 33 31 31 31 31 30 28 29 28 26 25 24 22 21 22 22 23 24 24 23 22 22 21 20 20 20 20 19 20 19 18 16 16 16 15 14 14 14 13 14 14 14 14 12 11 10 10 10 11 13 13 13 13 14 17 19 19 18 16 15
39 39 39 39 39 39 39 39 39 38 37 36 35 35 34 32 32 32 31 30 30 29 28 27 27 26 24 22 20 20 23 25 25 25 25 24 24 23 23 24 23 22 22 22 20 17 15 15 15 15 15 15 14 14 14 14 13 12 11 11 10 11 12 13 13 13 13 15 17 16 16 15 14 13
38 40 40 40 41 41 41 40 40 40 40 38 37 36 35 33 32 33 32 31 30 29 27 27 27 25 25 25 22 21 25 28 28 27 26 24 23 23 23 24 24 23 23 23 21 19 17 16 15 15 16 16 15 14 13 12 12 11 11 12 11 11 12 13 13 13 14 15 15 14 13 14 13 12
38 39 41 41 42 42 42 41 41 41 41 41 40 39 37 36 35 34 32 32 32 29 27 27 26 24 25 28 28 27 28 29 28 27 27 26 24 21 19 19 21 22 23 23 22 21 19 17 16 16 16 15 14 14 12 11 11 11 12 12 11 11 12 12 12 12 13 14 14 13 13 13 13 13
39 39 40 41 41 41 42 42 42 42 42 42 42 40 39 39 39 37 35 33 33 31 29 28 28 27 27 30 32 31 29 28 28 29 29 28 26 23 18 16 17 21 22 23 23 22 20 19 18 17 16 15 15 14 13 11 11 11 12 12 11 10 10 9 9 11 12 12 11 11 11 11 11 11
39 39 39 39 39 40 41 42 42 43 43 43 43 42 41 41 41 41 40 37 36 35 32 30 30 31 30 29 31 33 31 30 31 30 30 30 29 27 23 20 20 21 22 23 24 23 21 20 20 19 18 16 15 13 13 13 12 12 12 11 10 8 7 8 9 10 10 8 8 8 8 8 9 9
39 39 38 38 38 38 39 41 42 43 43 43 43 43 43 43 43 43 43 42 41 39 37 34 35 36 34 31 33 35 34 33 31 30 31 32 31 29 28 28 27 24 22 23 24 24 23 22 21 21 18 15 14 13 14 14 14 13 12 10 9 8 7 8 9 9 8 6 6 6 6 6 6 7
40 39 38 37 38 38 39 40 41 42 42 42 43 44 45 45 44 44 44 45 44 42 40 39 39 39 37 36 37 36 35 34 34 33 33 33 32 32 31 31 30 26 24 24 23 21 23 22 21 20 17 14 14 15 13 13 13 13 12 10 8 7 7 8 8 8 8 7 6 5 5 4 5 6
40 40 39 39 39 39 39 40 40 41 41 41 42 45 46 47 46 45 46 47 47 46 44 44 43 42 40 39 38 36 36 36 36 35 35 34 34 33 30 28 27 26 25 25 23 21 22 22 21 20 17 15 16 15 12 11 12 12 12 10 9 8 8 8 8 8 8 8 7 5 5 5 5 5
39 39 39 39 39 40 40 40 39 40 40 41 41 43 45 47 46 47 49 49 49 49 48 48 47 44 41 40 39 38 37 37 36 34 32 32 31 29 24 23 24 25 25 26 26 22 21 21 21 20 18 17 17 16 13 11 12 13 12 10 9 9 9 9 8 8 9 9 8 6 6 6 7 7
38 38 39 40 40 40 40 40 40 39 39 41 42 42 42 43 44 47 49 48 48 50 50 50 49 45 42 40 39 39 38 37 36 33 30 29 29 27 21 18 22 26 27 28 28 25 22 21 21 20 19 19 19 16 14 13 12 13 13 11 10 10 9 8 9 10 11 10 9 8 7 7 9 10
37 38 39 40 41 41 40 39 39 39 39 41 42 41 40 39 42 46 45 42 44 47 48 49 49 46 44 42 40 39 39 38 37 36 35 32 31 29 24 21 22 24 28 30 29 25 23 22 22 21 18 17 18 17 14 13 14 14 14 13 12 10 9 9 10 10 11 11 11 9 7 8 10 12
38 39 39 39 41 42 41 39 39 39 41 43 42 41 39 38 41 45 43 41 43 43 44 47 49 48 47 45 42 40 39 38 38 39 39 37 35 33 29 26 21 15 21 31 31 26 24 24 24 24 17 11 13 17 16 13 15 15 15 14 13 11 11 11 11 11 12 12 12 10 7 7 9 12
39 40 38 37 38 39 39 40 40 40 42 44 44 42 40 41 44 44 42 44 46 45 43 44 47 48 48 45 43 41 40 40 40 41 41 41 40 38 34 31 26 19 22 29 31 28 26 25 26 29 23 12 8 13 17 16 15 14 14 15 14 13 12 12 11 12 13 13 11 10 8 7 8 10
38 37 36 35 35 35 36 37 40 42 44 44 44 45 46 47 47 44 42 43 46 45 42 40 41 44 45 44 44 43 43 44 44 43 44 44 44 43 39 35 32 28 28 28 27 28 28 27 28 30 26 17 11 12 16 16 15 14 14 14 14 13 12 12 13 13 14 13 12 11 9 9 9 10
36 34 34 35 36 36 36 36 37 40 43 44 46 48 50 50 48 45 43 42 41 41 40 38 38 40 42 44 46 46 46 47 48 47 47 47 46 46 45 42 37 34 33 30 27 29 30 30 31 30 25 20 16 15 16 15 14 14 15 14 13 12 12 12 13 14 14 13 12 11 11 10 10 10
35 34 34 35 36 36 36 36 36 37 38 42 46 49 50 50 48 47 45 43 40 38 38 38 39 42 44 45 46 47 50 51 51 51 50 49 48 47 46 46 43 40 38 34 30 31 33 33 33 33 30 24 19 15 15 15 14 15 16 15 13 12 11 12 12 13 13 13 12 12 12 12 11 11
36 34 34 35 36 36 36 37 38 38 38 40 43 45 47 49 49 48 48 46 42 38 37 39 42 44 44 43 44 47 50 50 50 51 50 49 49 47 45 45 43 40 38 36 33 34 36 35 34 34 33 29 23 18 15 16 17 16 16 14 12 12 12 11 11 12 13 14 14 14 14 14 12 12
33 32 33 34 36 37 37 38 39 39 40 41 41 42 44 46 50 50 48 45 41 38 39 42 43 44 44 45 46 47 46 45 45 46 44 43 43 43 42 42 42 40 39 37 34 35 38 38 35 33 32 29 26 22 18 17 17 17 17 15 13 13 13 13 13 14 16 15 15 15 15 14 13 13
31 29 28 28 29 31 31 32 34 36 38 39 41 43 44 46 50 51 48 44 40 39 42 44 44 44 44 44 45 44 43 44 45 44 41 39 38 38 38 38 37 37 37 36 35 35 39 39 35 33 31 27 24 23 21 18 17 17 16 16 14 12 11 11 12 14 15 16 15 14 14 14 14 12
34 33 31 29 28 27 27 28 30 32 33 35 37 40 42 45 49 50 49 47 43 42 44 45 45 45 42 40 40 41 41 42 44 43 42 38 36 36 35 33 32 32 33 34 34 35 38 38 34 31 29 25 22 21 21 19 18 17 16 15 14 12 10 10 10 11 13 14 14 14 14 14 12 11
27 30 32 32 33 33 33 34 35 37 38 38 38 39 41 43 46 48 48 47 45 45 46 46 44 42 39 38 39 40 40 41 42 43 42 38 35 34 32 28 26 27 29 31 33 35 35 35 33 29 26 23 21 20 19 18 18 19 18 17 16 15 13 12 13 13 13 14 16 16 14 13 11 12
16 19 22 24 28 30 32 34 36 39 39 38 39 40 41 42 43 44 44 44 46 48 48 46 41 36 33 33 35 36 37 40 42 42 41 37 34 33 32 29 27 28 29 30 32 33 32 29 27 24 20 18 17 17 18 18 20 21 19 18 17 16 15 14 13 13 14 16 17 16 13 12 13 15
14 16 17 18 20 22 23 25 28 32 32 32 34 37 39 40 40 41 42 43 45 47 48 47 40 32 30 32 34 35 37 38 38 41 43 42 39 38 36 33 29 30 30 30 31 33 31 27 24 20 17 15 16 16 17 18 19 20 19 18 18 17 15 13 12 13 15 17 17 14 13 14 15 15
9 11 13 15 17 19 20 22 25 28 29 30 31 33 35 36 37 39 41 44 45 45 46 46 39 34 35 37 37 39 40 39 38 41 43 44 44 44 42 38 34 34 35 34 34 35 34 31 28 23 19 18 17 17 18 20 20 18 18 19 19 18 16 13 12 13 15 15 14 13 13 16 16 14
6 6 7 10 13 16 18 21 24 26 28 29 31 32 33 34 36 37 41 44 45 44 45 45 42 39 40 41 41 42 44 42 41 41 42 43 43 44 42 40 38 38 38 37 37 37 36 34 33 27 19 14 11 10 15 23 24 21 20 20 19 18 17 15 14 15 15 15 14 13 14 16 17 15
12 10 9 9 11 14 17 20 22 24 26 28 30 32 33 35 37 38 41 43 44 45 46 46 45 43 42 42 42 43 44 42 40 40 42 44 44 41 38 37 36 36 35 34 36 38 37 35 34 29 19 10 6 6 11 19 23 21 21 22 21 20 18 17 16 18 18 17 16 15 15 17 18 15
14 13 14 15 16 17 19 21 23 24 26 28 30 32 34 35 37 39 40 40 41 43 45 45 45 46 44 42 41 40 40 41 41 41 42 43 42 39 37 35 34 35 34 32 33 37 37 34 33 31 23 13 6 6 9 12 15 17 18 20 23 23 20 19 18 19 19 18 17 17 16 17 17 15
15 16 16 17 19 20 22 23 25 26 28 30 31 33 34 35 36 37 38 39 40 41 42 42 44 45 45 44 44 43 42 42 42 42 44 45 44 42 40 37 35 34 33 30 30 33 35 33 33 34 31 23 17 18 18 15 12 12 12 14 20 23 22 20 20 20 19 18 17 17 17 17 17 16
16 16 16 17 19 21 22 24 25 26 28 30 32 34 36 37 38 38 38 39 40 40 40 42 44 44 45 45 45 42 40 40 41 42 44 46 45 44 43 41 37 35 33 28 27 29 32 35 37 38 36 30 27 27 24 15 11 11 9 9 14 18 19 21 23 22 19 18 18 18 18 18 17 16
14 15 16 16 18 20 21 23 25 25 26 29 31 33 36 37 38 40 41 42 42 41 41 41 40 40 42 45 44 41 38 38 39 40 41 43 43 43 43 41 37 35 32 28 27 29 32 36 39 36 32 29 27 23 16 10 10 13 13 12 13 15 16 19 23 23 20 19 18 18 18 18 18 17
12 15 16 18 19 20 21 22 23 23 25 27 29 31 33 35 37 40 42 42 42 41 40 39 39 39 40 40 40 38 36 35 39 44 46 44 42 41 41 40 38 36 33 31 30 31 31 32 33 29 27 28 27 21 13 11 13 15 14 13 13 11 11 15 19 20 19 18 18 18 17 16 13 11
12 14 16 17 19 20 21 21 21 22 23 25 27 29 29 29 29 31 33 34 36 37 38 37 36 35 36 36 35 36 34 29 28 33 39 42 42 42 40 38 38 37 35 33 31 29 28 28 29 27 26 28 28 23 18 17 18 17 15 15 13 11 11 12 14 15 15 16 18 19 19 18 13 10
11 12 14 16 18 20 21 21 20 20 20 22 25 27 26 25 24 24 24 24 24 27 31 34 33 32 33 33 32 34 36 31 24 18 18 23 31 37 37 34 32 30 28 28 27 27 27 28 28 29 29 29 28 25 22 20 19 18 17 16 14 13 13 12 12 12 13 15 16 18 20 21 20 18
8 9 12 15 17 19 20 19 19 19 19 20 23 24 25 24 23 24 28 29 27 22 17 14 13 15 20 19 13 12 17 28 37 34 24 19 20 24 29 33 31 27 23 22 22 22 24 26 27 29 30 29 27 26 24 22 20 18 17 15 13 13 12 11 10 11 13 14 15 15 16 17 16 15
Wind_Direction
207 204 204 209 211 209 214 219 218 222 229 230 226 220 215 201 178 177 210 227 221 218 223 226 228 229 225 226 225 221 221 223 227 234 239 244 245 244 250 252 253 260 263 268 271 271 273 274 275 277 279 284 289 293 296 299 303 305 305 309 311 313 314 314 315 317 316 314 312 312 312 311 310 308
208 208 209 213 216 216 218 218 218 223 227 227 221 219 220 216 204 189 188 228 226 221 227 229 231 232 224 222 220 215 217 221 223 233 239 243 247 248 251 254 257 261 262 266 270 272 274 273 272 274 275 279 284 288 291 294 299 302 303 307 311 314 316 319 324 325 324 321 318 316 315 313 312 310
208 208 211 215 218 219 222 222 222 226 224 221 215 211 215 218 218 211 195 213 230 224 228 228 227 227 218 215 215 213 215 221 226 235 243 247 251 251 251 252 257 260 261 266 271 272 273 271 270 270 271 275 279 281 286 290 295 298 299 303 308 312 313 317 324 325 323 321 320 320 320 319 318 317
210 210 212 216 219 220 224 224 224 228 224 219 216 212 211 213 219 221 213 214 230 226 229 231 228 226 218 213 213 215 219 226 231 236 243 248 246 243 244 247 253 256 256 262 269 270 271 270 269 269 270 272 274 277 282 288 293 294 294 297 303 306 307 311 318 321 321 321 321 322 322 322 321 320
213 214 214 216 220 223 228 227 225 228 227 222 221 221 219 217 219 222 220 222 233 230 229 234 236 231 219 212 213 219 226 229 229 232 238 244 243 240 240 244 249 253 255 260 264 265 265 266 267 268 269 269 271 276 282 289 293 293 291 293 296 298 298 303 311 316 319 319 320 322 323 322 322 322
214 217 216 217 218 221 228 230 227 228 228 224 223 223 224 223 222 223 223 223 227 231 229 229 228 220 213 213 216 220 224 226 225 227 231 235 240 244 246 246 246 248 253 256 257 258 261 263 265 266 267 269 272 277 283 288 291 291 291 290 291 292 292 297 306 311 315 316 318 320 320 321 322 322
215 216 218 219 218 218 224 230 229 228 229 228 226 224 225 226 225 225 227 225 225 228 229 228 222 212 210 216 221 222 223 224 223 225 230 234 238 243 247 249 248 246 248 250 252 255 257 258 262 265 268 272 275 278 284 288 289 288 287 286 285 286 288 294 301 305 308 311 314 315 315 315 318 319
215 216 218 220 219 219 221 226 228 229 230 230 229 227 226 227 227 226 227 229 229 229 231 232 230 224 218 218 220 221 221 221 222 226 231 233 236 240 245 249 250 246 246 249 253 254 252 252 258 264 267 270 273 279 284 288 288 285 281 279 280 281 285 291 295 298 301 306 309 310 309 310 313 314
215 216 219 220 219 218 220 222 224 226 228 228 228 229 228 227 228 228 228 230 230 230 233 234 233 233 232 227 221 219 217 217 222 228 231 230 231 235 241 246 246 242 244 250 254 253 251 252 257 261 263 264 267 273 279 282 284 282 277 274 274 278 282 285 286 289 295 301 306 307 307 308 309 309
218 218 219 221 220 219 219 220 221 223 224 224 225 227 228 227 226 227 227 229 229 230 232 236 235 233 234 234 231 226 222 220 221 223 225 230 232 232 234 237 238 241 245 250 253 253 252 252 254 256 257 257 259 265 270 274 275 272 268 265 264 269 274 276 277 284 292 299 304 305 305 305 305 304
221 221 221 222 222 221 220 220 220 221 222 222 223 224 226 226 224 223 225 226 227 228 229 232 234 233 233 233 233 231 228 225 224 222 221 224 228 230 231 232 235 239 242 245 248 250 250 249 252 256 256 253 254 259 265 267 267 266 261 254 251 256 262 267 274 283 292 297 301 303 304 305 304 302
222 223 223 223 223 224 224 223 222 221 222 222 222 223 224 224 221 220 221 221 223 225 226 227 230 231 231 230 230 227 221 217 219 222 222 223 226 228 230 235 239 240 240 242 245 245 241 243 250 253 249 247 247 252 260 262 262 262 256 247 245 251 258 265 274 284 291 296 301 304 305 308 308 305
223 224 224 225 225 226 227 227 226 225 224 224 223 222 221 221 221 219 218 218 219 220 222 224 226 227 228 228 225 219 215 214 217 221 222 226 230 230 231 236 239 240 241 242 243 242 240 242 247 245 242 243 243 247 256 260 258 258 254 248 250 255 260 265 272 283 293 298 301 304 305 305 304 303
223 224 225 226 227 228 228 229 229 228 228 228 227 226 222 220 220 219 217 217 217 217 218 220 221 221 225 226 224 222 221 220 221 221 220 223 227 227 228 233 235 236 239 241 240 240 239 240 241 240 241 242 241 245 254 254 252 255 253 250 252 255 257 262 271 287 299 302 301 301 302 300 298 299
223 225 226 227 228 229 229 229 230 230 230 230 231 230 228 225 223 220 218 217 217 216 218 220 218 219 223 224 224 225 226 223 222 223 222 221 221 219 217 224 230 231 231 233 235 236 235 236 236 236 240 242 243 248 250 244 246 252 249 244 246 249 253 263 279 296 304 304 302 302 303 302 301 301
224 224 226 227 228 229 229 229 230 231 232 232 233 233 232 231 230 227 224 222 220 218 218 219 219 220 223 223 222 222 224 223 224 224 223 220 219 217 216 218 224 227 225 224 229 231 229 228 231 235 239 241 244 246 241 240 248 251 243 237 239 246 258 272 288 302 308 310 313 318 320 320 319 317
224 225 225 226 228 229 230 229 229 230 231 232 233 234 235 234 234 233 230 230 229 225 222 221 223 224 223 223 223 222 222 223 222 221 220 219 218 216 217 221 225 227 222 218 222 227 228 228 231 236 237 235 237 239 239 243 247 244 238 234 236 249 265 278 290 302 313 323 330 335 342 344 339 335
225 225 225 226 227 229 230 229 228 228 229 230 230 231 233 234 235 234 233 233 233 232 229 227 229 230 227 226 227 225 223 222 221 220 219 218 217 218 223 229 231 228 222 218 217 223 230 230 232 236 235 228 230 235 237 237 238 238 236 232 239 257 268 277 290 301 310 320 328 336 348 349 340 337
228 228 227 228 229 229 230 230 229 227 227 227 227 228 229 231 233 233 233 233 232 231 232 233 235 235 232 231 230 228 226 226 226 227 227 226 224 223 225 228 228 224 222 219 214 219 230 231 230 233 230 223 227 231 230 228 230 232 232 234 247 263 267 275 288 296 300 306 313 318 324 323 318 318
232 231 230 230 231 231 232 232 231 229 227 225 225 226 227 229 231 232 234 234 233 232 232 234 236 236 235 234 232 230 229 229 230 231 232 229 223 218 215 215 216 216 217 215 214 219 230 231 230 229 222 217 221 223 219 219 223 226 231 241 253 257 261 271 282 288 291 296 302 304 303 304 302 299
236 235 234 233 233 234 234 234 233 232 228 226 225 226 227 228 229 232 234 235 235 235 235 236 236 236 236 236 234 232 229 229 228 225 222 220 212 205 204 205 208 210 211 211 214 221 229 231 227 223 218 216 218 218 217 222 226 231 238 246 249 248 251 261 272 280 285 288 292 294 295 296 294 291
239 239 238 236 236 236 237 236 235 233 230 228 227 226 226 227 229 233 233 234 236 237 236 237 237 236 236 236 235 232 229 227 226 222 218 216 207 202 203 203 205 210 213 212 213 218 227 230 224 216 211 213 218 220 224 232 238 241 243 240 237 238 242 251 263 273 281 284 286 288 293 297 294 291
240 241 241 240 239 239 239 238 237 236 233 231 230 228 227 227 230 233 233 232 234 236 234 234 234 233 234 234 233 232 228 225 225 224 222 217 208 204 205 202 198 205 216 215 213 214 221 225 217 207 201 204 219 223 227 234 238 238 235 231 227 228 234 246 260 269 274 279 281 282 288 295 297 295
239 241 242 243 243 242 242 240 239 238 236 234 233 230 228 230 233 235 234 233 234 234 233 232 232 231 231 230 229 228 225 223 224 224 222 219 213 209 206 201 199 206 217 216 214 214 218 219 211 205 203 202 206 213 218 224 226 226 228 227 225 225 232 245 258 264 268 274 278 280 286 292 295 297
238 241 242 245 246 246 245 244 242 241 240 238 236 234 233 235 238 238 237 236 236 234 234 234 232 231 230 228 226 225 222 219 220 221 220 219 217 213 209 204 203 209 217 218 216 214 213 209 204 202 204 207 199 193 200 209 219 226 228 226 225 230 240 248 252 256 261 270 276 277 282 289 291 291
239 242 243 246 248 249 248 248 246 244 243 241 239 239 240 241 241 239 239 240 238 235 233 233 232 230 228 225 224 222 220 218 218 218 218 217 217 216 215 213 210 212 215 217 216 213 207 203 200 196 195 201 202 196 195 204 217 223 220 221 230 239 244 244 248 255 261 267 272 274 279 285 284 284
241 243 245 247 249 250 250 251 250 249 247 245 244 244 244 244 243 242 241 240 238 234 232 231 230 229 227 224 222 220 220 219 218 218 218 217 215 215 216 217 219 221 219 214 210 209 206 203 201 199 196 196 194 195 201 207 210 210 212 221 232 235 231 232 242 254 259 262 266 271 274 274 271 273
243 244 246 248 250 251 252 253 253 252 250 249 249 249 249 247 245 242 240 238 236 234 231 229 230 230 228 226 224 223 222 222 220 220 219 217 215 213 212 213 217 220 217 211 207 206 206 205 204 203 203 200 193 193 204 210 210 211 213 219 224 221 220 228 241 253 258 260 261 264 267 266 262 263
242 244 247 250 251 253 254 254 254 253 251 252 252 253 252 250 245 241 240 239 236 232 231 231 232 231 230 228 227 227 226 224 223 222 221 218 215 212 209 209 211 211 209 208 207 205 205 207 205 201 201 203 202 204 209 212 214 214 213 217 224 227 228 234 243 252 256 255 255 259 264 260 254 256
238 241 245 249 251 254 256 256 255 254 253 254 254 253 253 250 245 242 241 240 237 234 234 235 235 234 233 231 230 228 224 221 220 218 217 215 212 208 204 202 205 207 207 208 207 204 203 205 205 200 198 201 207 212 214 213 213 213 214 219 226 230 233 238 244 251 255 253 253 261 263 254 247 258
246 246 247 250 252 256 259 261 260 260 259 258 256 254 252 250 247 244 242 241 241 240 239 239 238 238 236 233 229 225 220 218 217 214 212 209 206 203 201 199 199 201 202 204 204 203 202 203 202 201 201 200 204 211 215 215 215 216 217 222 227 229 233 240 249 253 251 253 260 266 260 249 249 274
258 257 257 257 258 259 259 260 261 261 262 261 260 258 256 253 250 247 244 243 244 244 244 244 242 238 234 229 225 221 217 215 214 211 208 205 201 198 197 195 193 189 189 192 195 198 200 200 200 203 206 207 207 207 207 211 219 224 225 226 231 238 240 246 255 255 249 255 266 265 254 250 265 290
263 262 262 262 262 261 260 260 260 261 262 263 262 261 259 256 253 249 245 243 244 245 246 246 244 238 233 231 227 221 216 214 211 208 204 199 196 196 195 195 192 186 182 183 186 189 193 196 198 201 207 212 213 207 201 207 220 228 231 232 235 241 247 250 251 249 251 260 263 254 245 257 279 291
269 270 271 272 272 271 270 269 268 268 268 268 266 265 263 259 256 252 249 247 247 247 247 247 244 237 233 232 226 220 218 214 209 206 201 194 191 193 195 194 191 186 183 182 182 184 185 186 188 192 198 206 210 207 205 213 223 229 232 237 240 244 249 249 242 245 256 260 254 245 252 272 283 286
285 288 289 289 289 287 284 281 278 278 278 276 273 271 269 264 260 256 253 252 251 251 250 250 245 234 229 227 222 217 216 212 206 202 198 192 189 192 194 193 189 186 184 182 181 181 181 180 179 180 184 193 203 211 216 222 229 232 234 238 244 246 246 240 235 246 256 249 237 243 265 277 281 284
25 359 330 311 303 298 292 288 286 284 283 281 279 277 274 271 266 260 257 256 255 252 251 251 246 237 230 225 221 218 214 209 202 197 192 190 191 193 193 192 190 187 185 182 180 178 177 178 178 174 172 180 192 205 217 222 227 234 238 240 242 242 238 231 232 244 249 237 230 249 271 276 278 282
31 13 351 328 314 305 297 293 290 287 285 284 282 280 278 276 273 269 266 263 259 254 252 250 248 243 235 227 222 219 214 208 200 193 189 190 192 193 192 190 188 186 185 183 180 177 176 177 178 175 171 173 186 201 215 221 226 233 238 241 242 240 234 228 230 240 241 234 239 256 268 270 272 273
15 1 347 333 324 317 310 304 301 297 293 290 287 284 282 280 279 277 274 269 263 258 255 252 250 247 242 232 224 219 214 208 201 193 190 190 191 189 188 186 183 182 183 182 179 177 177 178 179 180 179 174 175 199 204 208 220 232 238 241 242 241 235 227 230 235 234 232 244 258 263 263 266 267
8 357 346 336 330 324 319 315 311 308 304 300 295 291 288 285 283 281 278 274 269 264 259 254 251 250 246 238 229 220 215 210 202 194 190 189 189 187 184 182 180 177 176 176 176 176 178 181 183 186 186 184 191 206 207 201 210 229 237 237 236 235 231 224 224 228 230 234 248 258 260 261 262 262
6 357 348 340 334 328 324 321 319 316 313 309 304 299 295 290 285 281 277 275 273 270 266 260 254 251 249 245 237 226 217 210 204 198 192 188 186 184 181 177 175 171 168 169 172 174 178 185 189 191 191 195 205 213 212 205 204 209 210 208 214 219 221 219 219 222 230 240 250 257 261 263 259 257
0 353 349 344 339 334 330 328 326 323 321 318 313 308 301 294 288 283 278 274 271 269 268 267 262 255 251 248 241 231 220 209 201 197 192 187 183 180 177 172 169 167 165 165 170 176 182 188 191 192 195 201 205 201 193 183 186 193 195 195 197 206 217 223 224 229 237 246 251 253 259 262 261 261
357 356 356 353 348 342 339 336 335 333 330 328 325 321 314 306 299 293 287 280 273 267 265 266 268 265 261 256 246 234 222 209 199 194 190 183 177 172 170 167 166 165 164 164 169 177 182 185 187 191 195 197 194 185 178 187 194 194 197 203 208 218 228 230 232 235 240 246 249 249 252 254 253 254
6 6 6 2 357 353 350 348 348 347 345 342 339 335 331 328 323 316 306 293 281 271 264 262 263 265 268 268 258 243 230 218 206 198 189 178 169 164 164 165 165 162 161 162 165 169 173 178 183 189 192 193 191 188 192 200 202 204 211 218 224 235 241 239 238 237 237 241 244 245 246 246 242 243
16 15 12 8 8 7 5 4 4 3 2 360 355 351 349 349 351 351 345 331 309 289 276 268 264 264 265 268 266 250 228 204 180 171 175 170 164 160 155 150 146 142 145 152 155 157 164 173 180 184 188 191 192 194 199 204 205 208 214 218 227 239 244 240 237 232 229 234 241 244 247 250 252 257
22 22 17 15 16 18 18 18 17 16 15 13 8 4 3 4 9 19 25 25 21 12 352 322 299 280 261 254 267 271 224 180 155 141 130 119 121 126 125 122 118 116 125 143 154 159 167 175 181 186 191 194 197 200 206 208 208 206 208 215 230 239 236 232 232 230 232 241 249 250 248 248 250 255